OPS 4682 DEB, 19576

Orbit data source: Space-Track

OPS 4682 DEB, 19576 is space debris in LEO originally from a launch on Sat, 03 Apr 1965 UTC launched from the Air Force Western Test Range (AFWTR). Debris objects in space refer to the collection of defunct objects orbiting the Earth. Examples of debris include non-operational satellites, rocket bodies, and fragments generated from explosions, collisions, or faulty payload assembly.

Loading next visibility...
Identifier
19576, 1965-027AV
Orbit
LEO
Country
Flag of USUS
Related business
Manufacturer
Unknown
Mission
Spacecraft
Bus & Motor
Unknown
Mass
Unknown
Launch date (UTC)
1965-04-03 (61 years ago)
Launch vehicle
Unknown
Launch site
Air Force Western Test Range (AFWTR)
Object type
Payload
Rocket body
Debris
Shape & HBR
Unknown shape, 0.1 m
Radar Cross Section
Small (<0.1 m²)

Expand to show TLE details & history
Last TLE update: 9 hours ago

TLE from 9 hours ago
0 OPS 4682 DEB
1 19576U 65027AV  25293.18042187  .00000579  00000-0  18795-2 0  9993
2 19576  90.2411   3.7925 0028888 132.3886 256.4057 13.00600302767158
Epoch: 2025-10-20T04:19Z
TLE epoch observation values (Epoch: 2025-10-20T04:19:48.449Z)
Latitude
28.51273°
Longitude
-90.17612°
Altitude
1,268.507 km
Speed
7.221 km/s
True Right ascension
00h 14m 38s
True Declination
28° 22' 42"
Sunlit
Object was in full shadow at epoch
Visualization orbit readout
Latitude
Unknown
Longitude
Unknown
Altitude
Unknown
Speed
Unknown
Apparent Right ascension
Unknown
Apparent Declination
Unknown
Sunlit
N/A
Visualization observer readout
Local Sidereal Time
08:28:36
Azimuth
Unknown
Elevation
Unknown
Doppler factor
Unknown
Orbital elements
Apogee altitude
1,278.918 km
Perigee altitude
1,234.806 km
Semi-major axis
7,634.999 km
Eccentricity
0.00289
Inclination
90.2411°
RAAN
3.7925°
Arg. of periapsis
132.3886°
True anomaly
256.08422°
Mean anomaly
256.4057°
Eccentric anomaly
256.24493°
Mean motion
3.25334 °/min
Orbital period
110.66 mins
BSTAR
0.0018795
Loading maneuver chart data...
Computing Atmospheric mass density...
Loading historical data...
Loading historical data...
Loading historical data...
Loading historical data...
Loading historical data...
Loading historical data...
Loading historical data...

Documentation

Showing up to 5 results
|